Weather reports worldwide

Advertisment
Topcliffe, United Kingdom (3265): temperature & dewpoint: 16.08.2019 20:00:00 - 22.08.2019 20:00:00 (BST)Topcliffe, United Kingdom (3265): wind speed & gusts: 16.08.2019 20:00:00 - 22.08.2019 20:00:00 (BST)Topcliffe, United Kingdom (3265): wind direction: 16.08.2019 20:00:00 - 22.08.2019 20:00:00 (BST)Topcliffe, United Kingdom (3265): reduced air pressure: 16.08.2019 20:00:00 - 22.08.2019 20:00:00 (BST)Topcliffe, United Kingdom (3265): visibility: 16.08.2019 20:00:00 - 22.08.2019 20:00:00 (BST)Topcliffe, United Kingdom (3265): precipitation: 16.08.2019 20:00:00 - 22.08.2019 20:00:00 (BST)
Date & Time tt [°C] td [°C] ff [km/h] ff [kn] fx [km/h] fx [kn] dd ppp [hPa] vv [km] rr [mm]
22.08.2019 20:00:00 - - - - - - - - - -
22.08.2019 19:00:00 18,9 14,9 35 19 46 25 SW 1019,1 35 0,0
22.08.2019 18:00:00 19,1 15,4 29 16 46 25 SW 1018,8 30 0,0
22.08.2019 17:00:00 19,3 15,1 24 13 - - SW 1018,9 45 0,0
22.08.2019 16:00:00 18,8 15,9 22 12 - - SW 1019,1 30 0,0
22.08.2019 15:00:00 18,7 15,7 18 10 - - WSW 1019,3 40 0,0
22.08.2019 14:00:00 18,4 15,3 21 11 - - SW 1019,3 40 0,0
22.08.2019 13:00:00 18,8 15,6 26 14 - - SW 1019,3 30 0,0
22.08.2019 12:00:00 16,6 15,5 16 9 - - SW 1019,5 20 0,0
22.08.2019 11:00:00 16,2 15,0 18 10 - - SSW 1019,2 20 0,2
22.08.2019 10:00:00 15,7 14,7 22 12 - - S 1019,1 29 0,0
22.08.2019 09:00:00 15,0 14,5 16 9 - - S 1019,2 40 0,4
22.08.2019 08:00:00 14,0 13,7 9 5 - - S 1019,1 4,4 1,6
22.08.2019 07:00:00 13,9 13,3 8 4 - - SSW 1019,0 4,2 0,8
22.08.2019 06:00:00 14,4 12,5 13 7 - - WSW 1018,8 45 0,0
22.08.2019 05:00:00 14,5 12,4 21 11 - - WSW 1018,6 50 0,0
22.08.2019 04:00:00 15,4 11,5 26 14 - - SW 1018,4 45 0,0
22.08.2019 03:00:00 15,7 11,0 26 14 48 26 SSW 1018,9 50 0,0
22.08.2019 02:00:00 16,0 10,9 31 17 46 25 SSW 1019,0 50 0,0
22.08.2019 01:00:00 15,8 11,1 28 15 46 25 SSW 1019,2 50 0,0
22.08.2019 00:00:00 16,2 11,8 21 11 - - S 1019,9 50 0,0
21.08.2019 23:00:00 16,4 12,0 22 12 - - SSW 1020,6 50 0,0
21.08.2019 22:00:00 16,3 12,2 18 10 - - S 1020,6 45 0,0
21.08.2019 21:00:00 16,6 12,1 22 12 - - SSW 1020,8 50 0,0
21.08.2019 20:00:00 17,4 11,9 21 11 - - SSW 1021,1 50 0,0
21.08.2019 19:00:00 17,1 12,4 16 9 - - SW 1021,4 40 0,0
21.08.2019 18:00:00 17,8 12,5 15 8 - - WSW 1021,6 10 0,0
21.08.2019 17:00:00 18,7 12,2 24 13 - - SW 1021,8 45 0,0
21.08.2019 16:00:00 19,1 12,4 18 10 - - SW 1022,2 30 0,0
21.08.2019 15:00:00 18,4 11,7 21 11 - - SW 1022,7 50 0,0
21.08.2019 14:00:00 18,7 12,0 15 8 - - SW 1022,9 30 0,0
21.08.2019 13:00:00 19,4 11,5 18 10 - - WSW 1023,3 30 0,0
21.08.2019 12:00:00 19,1 11,1 24 13 - - WSW 1023,4 23 0,0
21.08.2019 11:00:00 18,0 11,8 24 13 - - WSW 1023,8 30 0,0
21.08.2019 10:00:00 17,5 14,6 9 5 - - SW 1023,8 40 0,0
21.08.2019 09:00:00 15,6 14,2 15 8 - - SSE 1023,9 15 0,0
21.08.2019 08:00:00 14,3 14,1 15 8 - - SSE 1023,8 12 0,0
21.08.2019 07:00:00 12,3 12,3 11 6 - - SE 1023,6 6 0,0
21.08.2019 06:00:00 12,2 12,2 11 6 - - SE 1023,4 5 0,0
21.08.2019 05:00:00 12,4 12,3 9 5 - - ESE 1023,3 6 0,0
21.08.2019 04:00:00 11,9 11,7 11 6 - - SE 1023,4 4,8 0,0
21.08.2019 03:00:00 11,4 10,9 11 6 - - SE 1023,6 9 0,2
21.08.2019 02:00:00 11,2 10,3 11 6 - - ESE 1023,6 10 0,4
21.08.2019 01:00:00 10,8 9,5 9 5 46 25 SE 1023,8 19 0,2
21.08.2019 00:00:00 10,5 8,8 9 5 - - SE 1023,9 20 0,0
20.08.2019 23:00:00 10,3 8,3 9 5 - - SE 1023,9 19 0,0
20.08.2019 22:00:00 10,2 6,8 9 5 - - SE 1023,6 13 0,0
20.08.2019 21:00:00 11,0 5,7 2 1 - - SSW 1023,6 27 0,0
20.08.2019 20:00:00 15,3 6,9 9 5 - - WSW 1023,3 29 0,0
20.08.2019 19:00:00 17,1 6,8 21 11 - - W 1022,8 30 0,0
20.08.2019 18:00:00 17,8 8,4 21 11 - - WNW 1022,2 45 0,0
20.08.2019 17:00:00 18,7 9,2 21 11 - - W 1021,4 35 0,0
20.08.2019 16:00:00 18,0 8,4 18 10 - - W 1021,2 45 0,0
20.08.2019 15:00:00 17,4 8,3 21 11 - - W 1020,9 35 0,0
20.08.2019 14:00:00 16,6 8,8 21 11 - - WSW 1020,6 40 0,0
20.08.2019 13:00:00 16,5 9,0 24 13 - - W 1020,3 45 0,0
20.08.2019 12:00:00 17,5 8,2 21 11 - - WSW 1019,6 45 0,0
20.08.2019 11:00:00 17,9 8,2 22 12 - - W 1019,2 35 0,0
20.08.2019 10:00:00 16,0 8,3 16 9 - - W 1018,7 45 0,0
20.08.2019 09:00:00 14,7 10,0 13 7 - - WSW 1018,2 30 0,0
20.08.2019 08:00:00 13,2 10,1 11 6 - - WSW 1017,6 40 0,0
20.08.2019 07:00:00 11,9 10,2 9 5 - - SW 1017,1 50 0,0
20.08.2019 06:00:00 10,7 9,7 13 7 - - SW 1016,3 45 0,0
20.08.2019 05:00:00 10,9 9,8 11 6 - - SW 1016,0 40 0,0
20.08.2019 04:00:00 10,5 8,6 5 3 - - SSW 1015,6 35 0,0
20.08.2019 03:00:00 12,3 10,0 11 6 - - WSW 1015,0 50 0,0
20.08.2019 02:00:00 12,2 10,3 13 7 - - SW 1014,8 40 0,0
20.08.2019 01:00:00 11,2 9,4 9 5 - - SSW 1014,7 35 0,0
20.08.2019 00:00:00 11,8 9,0 11 6 - - SW 1014,6 35 0,0
19.08.2019 23:00:00 12,9 9,8 16 9 - - SW 1014,2 40 0,0
19.08.2019 22:00:00 12,7 9,9 13 7 - - SSW 1013,7 35 0,0
19.08.2019 21:00:00 14,3 9,8 13 7 - - SW 1013,2 35 0,0
19.08.2019 20:00:00 15,7 9,3 18 10 - - WSW 1012,6 30 0,0
19.08.2019 19:00:00 16,8 8,7 21 11 - - WSW 1012,2 40 0,0
19.08.2019 18:00:00 17,5 8,7 28 15 50 27 W 1011,8 30 0,0
19.08.2019 17:00:00 18,1 9,2 29 16 48 26 WSW 1011,6 40 0,0
19.08.2019 16:00:00 17,9 8,7 29 16 50 27 WSW 1011,1 35 0,0
19.08.2019 15:00:00 18,1 9,2 29 16 50 27 WSW 1010,9 35 0,0
19.08.2019 14:00:00 15,8 12,5 22 12 - - WSW 1010,7 45 0,8
19.08.2019 13:00:00 16,1 11,2 28 15 - - SW 1010,1 35 0,0
19.08.2019 12:00:00 17,9 10,0 28 15 46 25 WSW 1009,3 27 0,0
19.08.2019 11:00:00 17,1 9,4 15 8 - - W 1008,9 30 0,0
19.08.2019 10:00:00 16,7 9,8 28 15 - - WSW 1008,4 30 0,0
19.08.2019 09:00:00 15,7 10,3 16 9 - - W 1007,9 35 0,0
19.08.2019 08:00:00 14,9 10,6 16 9 - - WSW 1007,4 26 0,0
19.08.2019 07:00:00 13,4 11,2 15 8 - - WSW 1006,7 45 0,0
19.08.2019 06:00:00 12,0 10,5 13 7 - - SSW 1005,7 35 0,0
19.08.2019 05:00:00 12,7 11,1 11 6 - - SSW 1005,2 40 0,0
19.08.2019 04:00:00 13,9 11,6 15 8 - - WSW 1004,5 45 0,0
19.08.2019 03:00:00 13,6 12,2 16 9 - - SSW 1004,2 30 0,0
19.08.2019 02:00:00 13,8 12,5 15 8 - - SSW 1004,1 24 0,0
19.08.2019 01:00:00 12,7 11,9 11 6 - - S 1003,8 23 0,0
19.08.2019 00:00:00 12,7 12,1 15 8 - - S 1003,6 25 0,0
18.08.2019 23:00:00 13,5 12,1 15 8 - - SSW 1003,0 29 0,0
18.08.2019 22:00:00 13,8 12,2 16 9 - - SSW 1002,6 23 0,6
18.08.2019 21:00:00 14,2 11,9 16 9 - - SW 1002,1 26 0,0
18.08.2019 20:00:00 15,4 11,5 26 14 - - SW 1001,5 30 0,0
18.08.2019 19:00:00 16,8 10,9 21 11 - - SW 1001,5 40 0,0
18.08.2019 18:00:00 16,6 10,9 31 17 52 28 WSW 1000,9 35 0,0
18.08.2019 17:00:00 17,4 10,0 29 16 57 31 WSW 1000,3 35 0,0
18.08.2019 16:00:00 19,2 8,0 31 17 54 29 WSW 1000,1 40 0,0
18.08.2019 15:00:00 19,4 9,1 29 16 54 29 WSW 999,8 30 0,0
18.08.2019 14:00:00 18,4 9,0 35 19 55 30 WSW 999,5 30 0,0
18.08.2019 13:00:00 18,6 9,4 37 20 54 29 SW 998,9 26 0,0
18.08.2019 12:00:00 17,6 9,7 29 16 48 26 SW 998,9 45 0,0
18.08.2019 11:00:00 16,7 10,4 34 18 46 25 SW 998,9 16 0,0
18.08.2019 10:00:00 15,9 10,2 29 16 - - SW 998,6 25 0,0
18.08.2019 09:00:00 15,1 10,8 24 13 - - SSW 998,6 20 0,0
18.08.2019 08:00:00 12,7 11,4 18 10 - - S 998,6 20 0,0
18.08.2019 07:00:00 11,2 10,4 16 9 - - SSE 998,7 16 0,0
18.08.2019 06:00:00 10,3 9,7 13 7 - - SSE 999,0 22 0,0
18.08.2019 05:00:00 8,6 7,8 15 8 - - SSE 999,1 20 0,0
18.08.2019 04:00:00 9,5 8,2 15 8 - - S 999,4 25 0,0
18.08.2019 03:00:00 11,7 9,2 18 10 - - SSW 999,5 26 0,0
18.08.2019 02:00:00 10,7 8,6 16 9 - - SSE 1000,2 30 0,0
18.08.2019 01:00:00 12,2 8,7 8 4 - - SSW 1000,4 30 0,0
18.08.2019 00:00:00 13,7 9,1 16 9 - - SSW 1000,5 40 0,0
17.08.2019 23:00:00 13,4 9,1 21 11 - - SSW 1000,7 30 0,0
17.08.2019 22:00:00 13,2 9,4 9 5 - - S 1000,8 45 0,0
17.08.2019 21:00:00 15,8 9,2 16 9 - - SW 1000,7 40 0,0
17.08.2019 20:00:00 16,9 9,3 18 10 - - SW 1000,4 45 0,0
17.08.2019 19:00:00 18,1 10,2 21 11 - - SW 1000,5 35 0,0
17.08.2019 18:00:00 18,8 9,5 22 12 - - SW 1000,8 35 0,0
17.08.2019 17:00:00 19,7 9,5 22 12 50 27 SW 1000,6 35 0,0
17.08.2019 16:00:00 19,3 7,5 34 18 54 29 WSW 1000,6 27 0,0
17.08.2019 15:00:00 19,6 9,2 29 16 57 31 WSW 1000,6 20 0,0
17.08.2019 14:00:00 18,6 8,6 34 18 52 28 WSW 1000,4 40 0,0
17.08.2019 13:00:00 17,3 9,7 24 13 - - WSW 1000,3 40 0,0
17.08.2019 12:00:00 18,1 11,1 22 12 - - WSW 999,9 35 0,0
17.08.2019 11:00:00 17,2 11,5 24 13 - - WSW 999,6 35 0,0
17.08.2019 10:00:00 17,3 13,0 15 8 - - SW 999,1 40 0,0
17.08.2019 09:00:00 15,7 13,1 11 6 - - SW 998,8 30 0,2
17.08.2019 08:00:00 14,9 13,5 16 9 - - SSW 998,0 18 0,2
17.08.2019 07:00:00 14,5 13,2 18 10 - - SSW 997,6 23 0,0
17.08.2019 06:00:00 14,3 12,9 21 11 - - SSW 997,3 15 0,0
17.08.2019 05:00:00 14,6 13,4 18 10 - - SSW 997,3 20 0,0
17.08.2019 04:00:00 14,2 13,6 8 4 - - S 997,5 19 0,0
17.08.2019 03:00:00 14,4 13,6 21 11 - - SSW 997,2 22 0,2
17.08.2019 02:00:00 14,1 12,1 13 7 - - SSW 996,8 30 0,0
17.08.2019 01:00:00 15,9 13,1 28 15 - - SW 996,9 50 0,0
17.08.2019 00:00:00 15,0 14,9 13 7 - - S 996,7 40 0,0
16.08.2019 23:00:00 14,6 14,3 15 8 - - SE 997,1 15 0,0
16.08.2019 22:00:00 16,0 15,5 15 8 - - SSE 997,6 45 0,0
16.08.2019 21:00:00 16,0 15,5 21 11 - - SSE 997,7 30 0,2
16.08.2019 20:00:00 16,3 15,6 22 12 - - S 998,1 30 0,0

tt = temperature
td = dewpoint
ff = wind speed
fx = gusts
dd = wind direction
ppp = reduced air pressure
vv = visibility
rr = precipitation

Next stations